Weather in Balkany

Russia / Chelyabinsk Oblast     53°26′12″N   59°36′18″E
temp.,
°C
wind,
m/s
gust,
m/s
humid.,
%
clouds,
%
prec.,
mm/h
press.,
hPa
HPBL,
m
28 january, thu
thu2823:00−8ssw479268 0.0 1033119
02:00−9ssw5119361 0.0 1033201
05:00−11ssw5119342 0.0 1032194
08:00−12ssw599231 0.0 1032153
11:00−11ssw5119166 0.0 1031237
14:00−9ssw6118920 0.0 1030269
17:00−10ssw5119056 0.0 1029240
20:00−13ssw41191100 0.0 1029206
29 january, fri
fri2923:00−13ssw41193100 0.0 1028202
02:00−13ssw41193100 0.0 1028230
05:00−14ssw4993100 0.0 1027158
08:00−15ssw4793100 0.0 1026113
11:00−13ssw3893100 0.0 1026176
14:00−10ssw3792100 0.0 1024249
17:00−12s2392100 0.0 102321
20:00−13sse2293100 0.0 102320
30 january, sat
sat3023:00−12sse3392100 0.0 102251
02:00−11sse2494100 0.0 1020134
05:00−12sse2396100 0.0 101958
08:00−9sse3796100 0.3 1017299
11:00−8ssw3797100 0.4 1017307
14:00−7ssw3595100 0.1 1017271
17:00−9sw239697 0.1 101721
20:00−11sw239683 0.0 101821
31 january, sun
sun3123:00−12wsw229778 0.0 101821
02:00−11w229552 0.0 101921
05:00−11w229269 0.0 101921
08:00−10w1185100 0.0 102021
11:00−8wsw118094 0.0 102021
14:00−5sw128477 0.0 102035
17:00−7ssw128072 0.0 102021
20:00−9ssw22790 0.0 102121
1 february, mon
mon123:00−11s23791 0.0 102121
02:00−12ssw348890 0.0 102131
05:00−10ssw5119982 0.0 1020312
08:00−6ssw61195100 0.1 1019409
11:00−4ssw71393100 0.1 1018388
14:00−2sw71294100 0.0 1019438
17:00−2wsw5118799 0.0 1020351
20:00−6wsw4888100 0.0 1023142